map of BVH home
BVH - Airport
Location
City:  Vilhena, Rond˘nia, Brazil
Near (Alt.):Novo Campo
ICAO:SBVH
IATA:BVH

Details
Type:Airport (Aerodrome, Airfield)
Latitude:12░41'40"S (-12.694374)
Longitude:60░05'54"W (-60.098268)
Datum:WGS 1984
Elevation:2018 ft (615 m)
Variation:15.35░W (WMM2015v2 magnetic declination)
-0.17░ annual change
Runways:1
Longest:8530 × 98 ft (2600 × 30 m), paved

Time
Time Zone:UTC-4
Local Time:

Weather
METAR:SBVH 041400Z 11007KT 070V150 CAVOK 27/22 Q1017
TAF:SBVH 041000Z 0412/0424 06008KT 9999 SCT006 TN24/0413Z TX27/0418Z
BECMG 0415/0417 15008KT SCT035 PROB30 0418/0420 8000 TSRA BKN015 FEW025CB
BECMG 0421/0423 01003KT SCT015 FEW025TCU
RMK PFF

Related Locations
Nearby:
Farthest:USU: 12390 mi / 19940 km
Busuanga [Francisco B. Reyes Airport], PLW, PH

Find:

   beyond  
but within

Other Information
Maps:
NOTAMs:
Links:
Sources:

  
  • flag of Brazil
  • flag of Rond˘nia
  

Sectional Chart

Flight Planning
at skyvector.com

Satellite Image

Google Maps Satellite view

 

Copyright © 2004-2019 Karl L. Swartz. All rights reserved.
The Great Circle Mapper name and logo are trademarks of the Great Circle Mapper.
All other trademarks mentioned herein belong to their respective owners.
Please see credits for attibutions and further copyright information.

  Follow gcmap on Facebook Follow gcmap on Twitter GCmap on LinkedIn

hCard Microformat

Geo Microformat